CAPE
0 0 0 0 0 0 0 0 0 0 0 0 0 0 0 0 0 0 0 0 0 0 0 0 0 0 0 0 0 0 0 0 0 0 0 0 0 0 0 0 0 0 0 0 0 0 0
0 1 2 1 0 0 0 0 0 0 0 0 0 0 0 0 0 0 0 0 0 0 0 0 0 0 0 0 0 0 0 0 0 0 0 0 0 0 0 0 0 0 0 0 0 0 0
1 1 0 0 0 0 0 0 0 0 0 0 0 0 0 0 0 0 0 0 0 0 0 0 0 0 0 0 0 0 0 0 0 0 0 0 0 0 0 0 0 0 0 0 0 0 0
0 0 0 0 0 0 0 0 0 0 0 0 0 0 0 0 0 0 0 0 0 0 0 0 0 0 0 0 0 0 0 0 0 0 0 0 0 0 0 0 0 0 0 0 0 0 0
0 0 0 0 0 0 0 0 0 0 0 0 0 0 0 0 0 0 0 0 0 0 0 0 0 0 0 0 0 0 0 0 0 0 0 0 0 0 0 0 0 0 0 0 0 0 0
0 0 0 0 0 0 0 0 0 0 0 0 0 0 0 0 0 0 0 0 0 0 0 0 0 0 0 0 0 0 0 0 0 0 0 0 0 0 0 0 0 0 0 0 0 0 0
0 0 0 0 0 0 0 0 0 0 0 0 0 0 0 0 0 0 0 0 0 0 0 0 0 0 0 0 0 0 0 0 0 0 0 0 0 0 0 0 0 0 0 0 0 0 0
0 0 0 0 0 0 0 0 0 0 0 0 0 0 0 0 0 0 0 0 0 0 0 0 0 0 0 0 0 0 0 0 0 0 0 0 0 0 0 0 0 0 0 0 0 0 0
0 0 1 1 0 0 0 0 0 0 0 0 0 0 0 0 0 0 0 0 0 0 0 0 0 0 0 0 0 0 0 0 0 0 0 0 0 0 0 0 0 0 0 0 0 0 0
0 2 0 0 0 0 0 0 0 0 0 0 0 0 0 0 0 0 0 0 0 0 0 0 0 0 0 0 0 0 0 0 0 0 0 0 0 0 0 0 0 0 0 0 0 0 0
2 0 0 0 0 0 0 0 0 0 0 0 0 0 0 0 0 0 0 0 0 0 0 0 0 0 0 0 0 0 0 0 0 0 0 0 0 0 0 0 0 0 0 0 0 0 0
2 2 2 0 0 0 0 0 0 0 0 0 0 0 0 0 0 0 0 0 0 0 0 0 0 0 0 0 0 0 0 0 0 0 0 0 0 0 0 0 0 0 0 0 0 0 0
0 0 0 0 0 0 0 0 0 0 0 0 0 0 0 0 0 0 0 0 0 0 0 0 0 0 0 0 0 0 0 0 0 0 0 0 0 0 0 0 0 0 0 0 0 0 0
0 0 0 0 0 0 0 0 0 0 0 0 0 0 0 0 0 0 0 0 0 0 0 0 0 0 0 0 0 0 0 0 0 0 0 0 0 0 0 0 0 0 0 0 0 0 0
0 0 0 0 0 0 0 0 0 0 0 0 0 0 0 0 0 0 0 0 0 0 0 0 0 0 0 0 0 0 0 0 0 0 0 0 0 0 0 0 0 0 0 0 0 0 0
0 0 0 0 0 0 0 0 0 0 0 0 0 0 0 0 0 0 0 0 0 0 0 0 0 0 0 0 0 0 0 0 0 0 0 0 0 0 0 0 0 0 0 0 0 0 0
0 0 0 0 0 0 0 0 0 0 0 0 0 0 0 0 0 0 0 0 0 0 0 0 0 0 0 0 0 0 0 0 0 0 0 0 0 0 0 0 0 0 0 0 0 0 0
1 7 0 0 0 0 0 0 0 0 0 0 0 0 0 0 0 0 0 0 0 0 0 0 0 0 0 0 0 0 0 0 0 0 0 0 0 0 0 0 0 0 0 0 0 0 0
1 8 11 0 0 0 0 0 0 0 0 0 0 0 0 0 0 0 0 0 0 0 0 0 0 0 0 0 0 0 0 0 0 0 0 0 0 0 0 0 0 0 0 0 0 0 0
1 12 7 0 0 0 0 0 0 0 0 0 0 0 0 0 0 0 0 0 0 0 0 0 0 0 0 0 0 0 0 0 0 0 0 0 0 0 0 0 0 0 0 0 0 0 0
8 14 5 0 0 0 0 0 0 0 0 0 0 0 0 0 0 0 0 0 0 0 0 0 0 0 0 0 0 0 0 0 0 0 0 2 0 0 0 0 0 0 0 0 0 0 0
5 2 0 0 2 17 5 0 0 0 0 0 0 0 0 0 0 0 0 0 0 0 0 0 0 0 0 0 0 0 0 0 0 0 0 0 0 0 0 0 0 0 0 0 0 0 0
2 0 6 13 12 11 5 1 0 0 0 0 0 0 0 0 0 0 0 0 0 0 0 0 0 0 0 0 0 0 0 0 0 0 0 0 4 0 0 0 0 0 0 0 24 9 3
11 10 10 16 15 17 8 0 0 0 0 0 0 0 0 0 0 0 0 0 0 0 0 0 0 0 0 0 0 0 0 0 0 0 0 0 0 37 0 0 2 0 0 1 3 29 41
14 13 12 16 13 19 12 5 13 6 0 0 0 0 0 0 0 0 0 0 0 0 0 0 0 0 0 0 0 2 0 0 0 0 0 0 44 26 9 3 0 0 1 75 92 97 114
14 27 23 11 11 17 18 5 15 11 0 0 0 2 3 1 0 0 0 0 0 0 0 0 0 0 3 8 10 7 1 0 0 0 0 0 70 149 126 8 0 20 153 108 97 163 156
17 22 25 23 17 11 25 14 12 14 9 0 0 7 11 7 0 0 0 0 0 0 0 0 0 0 27 11 31 37 2 19 0 0 0 0 106 111 144 31 4 100 23 57 76 72 227
18 29 20 19 19 6 28 23 14 19 9 14 0 1 5 11 2 0 0 0 0 0 0 0 0 0 2 3 16 90 38 21 4 0 0 98 177 82 10 20 10 125 84 58 9 159 118
9 13 13 21 10 6 0 9 21 24 25 18 0 2 21 8 2 0 0 0 0 0 0 0 0 0 11 1 0 0 0 232 226 0 11 387 191 55 22 1 0 43 57 50 64 244 175
CIN
-0 -0 -0 -0 -0 -0 -0 -0 -0 -0 -0 -0 -0 -0 -0 -0 -0 -0 -0 -0 -0 -0 -0 -0 -0 -0 -0 -0 -0 -0 -0 -0 -0 -0 -0 -0 -0 -0 -0 -0 -0 -0 -0 -0 -0 -0 -0
-0 -0 -0 -0 -0 -0 -0 -0 -0 -0 -0 -0 -0 -0 -0 -0 -0 -0 -0 -0 -0 -0 -0 -0 -0 -0 -0 -0 -0 -0 -0 -0 -0 -0 -0 -0 -0 -0 -0 -0 -0 -0 -0 -0 -0 -0 -0
-0 -0 -0 -0 -0 -0 -0 -0 -0 -0 -0 -0 -0 -0 -0 -0 -0 -0 -0 -0 -0 -0 -0 -0 -0 -0 -0 -0 -0 -0 -0 -0 -0 -0 -0 -0 -0 -0 -0 -0 -0 -0 -0 -0 -0 -0 -0
-0 -0 -0 -0 -0 -0 -0 -0 -0 -0 -0 -0 -0 -0 -0 -0 -0 -0 -0 -0 -0 -0 -0 -0 -0 -0 -0 -0 -0 -0 -0 -0 -0 -0 -0 -0 -0 -0 -0 -0 -0 -0 -0 -0 -0 -0 -0
-0 -0 -0 -0 -0 -0 -0 -0 -0 -0 -0 -0 -0 -0 -0 -0 -0 -0 -0 -0 -0 -0 -0 -0 -0 -0 -0 -0 -0 -0 -0 -0 -0 -0 -0 -0 -0 -0 -0 -0 -0 -0 -0 -0 -0 -0 -0
-0 -0 -0 -0 -0 -0 -0 -0 -0 -0 -0 -0 -0 -0 -0 -0 -0 -0 -0 -0 -0 -0 -0 -0 -0 -0 -0 -0 -0 -0 -0 -0 -0 -0 -0 -0 -0 -0 -0 -0 -0 -0 -0 -0 -0 -0 -0
-0 -0 -0 -0 -0 -0 -0 -0 -0 -0 -0 -0 -0 -0 -0 -0 -0 -0 -0 -0 -0 -0 -0 -0 -0 -0 -0 -0 -0 -0 -0 -0 -0 -0 -0 -0 -0 -0 -0 -0 -0 -0 -0 -0 -0 -0 -0
-0 -0 -0 -0 -0 -0 -0 -0 -0 -0 -0 -0 -0 -0 -0 -0 -0 -0 -0 -0 -0 -0 -0 -0 -0 -0 -0 -0 -0 -0 -0 -0 -0 -0 -0 -0 -0 -0 -0 -0 -0 -0 -0 -0 -0 -0 -0
-0 -0 -0 -0 -0 -0 -0 -0 -0 -0 -0 -0 -0 -0 -0 -0 -0 -0 -0 -0 -0 -0 -0 -0 -0 -0 -0 -0 -0 -0 -0 -0 -0 -0 -0 -0 -0 -0 -0 -0 -0 -0 -0 -0 -0 -0 -0
-0 -0 -0 -0 -0 -0 -0 -0 -0 -0 -0 -0 -0 -0 -0 -0 -0 -0 -0 -0 -0 -0 -0 -0 -0 -0 -0 -0 -0 -0 -0 -0 -0 -0 -0 -0 -0 -0 -0 -0 -0 -0 -0 -0 -0 -0 -0
-0 -0 -0 -0 -0 -0 -0 -0 -0 -0 -0 -0 -0 -0 -0 -0 -0 -0 -0 -0 -0 -0 -0 -0 -0 -0 -0 -0 -0 -0 -0 -0 -0 -0 -0 -0 -0 -0 -0 -0 -0 -0 -0 -0 -0 -0 -0
-0 -0 -0 -0 -0 -0 -0 -0 -0 -0 -0 -0 -0 -0 -0 -0 -0 -0 -0 -0 -0 -0 -0 -0 -0 -0 -0 -0 -0 -0 -0 -0 -0 -0 -0 -0 -0 -0 -0 -0 -0 -0 -0 -0 -0 -0 -0
-0 -0 -0 -0 -0 -0 -0 -0 -0 -0 -0 -0 -0 -0 -0 -0 -0 -0 -0 -0 -0 -0 -0 -0 -0 -0 -0 -0 -0 -0 -0 -0 -0 -0 -0 -0 -0 -0 -0 -0 -0 -0 -0 -0 -0 -0 -0
-0 -0 -0 -0 -0 -0 -0 -0 -0 -0 -0 -0 -0 -0 -0 -0 -0 -0 -0 -0 -0 -0 -0 -0 -0 -0 -0 -0 -0 -0 -0 -0 -0 -0 -0 -0 -0 -0 -0 -0 -0 -0 -0 -0 -0 -0 -0
-0 -0 -0 -0 -0 -0 -0 -0 -0 -0 -0 -0 -0 -0 -0 -0 -0 -0 -0 -0 -0 -0 -0 -0 -0 -0 -0 -0 -0 -0 -0 -0 -0 -0 -0 -0 -0 -0 -0 -0 -0 -0 -0 -0 -0 -0 -0
-0 -0 -0 -0 -0 -0 -0 -0 -0 -0 -0 -0 -0 -0 -0 -0 -0 -0 -0 -0 -0 -0 -0 -0 -0 -0 -0 -0 -0 -0 -0 -0 -0 -0 -0 -0 -0 -0 -0 -0 -0 -0 -0 -0 -0 -0 -0
-0 -0 -0 -0 -0 -0 -0 -0 -0 -0 -0 -0 -0 -0 -0 -0 -0 -0 -0 -0 -0 -0 -0 -0 -0 -0 -0 -0 -0 -0 -0 -0 -0 -0 -0 -0 -0 -0 -0 -0 -0 -0 -0 -0 -0 -0 -0
-1 -0 -0 -0 -0 -0 -0 -0 -0 -0 -0 -0 -0 -0 -0 -0 -0 -0 -0 -0 -0 -0 -0 -0 -0 -0 -0 -0 -0 -0 -0 -0 -0 -0 -0 -0 -0 -0 -0 -0 -0 -0 -0 -0 -0 -0 -0
-0 -0 -0 -0 -0 -0 -0 -0 -0 -0 -0 -0 -0 -0 -0 -0 -0 -0 -0 -0 -0 -0 -0 -0 -0 -0 -0 -0 -0 -0 -0 -0 -0 -0 -0 -0 -0 -0 -0 -0 -0 -0 -0 -0 -0 -0 -0
-0 -0 -1 -1 -0 -0 -0 -0 -0 -0 -0 -0 -0 -0 -0 -0 -0 -0 -0 -0 -0 -0 -0 -0 -0 -0 -0 -0 -0 -0 -0 -0 -0 -0 -0 -19 -0 -0 -0 -0 -0 -0 -0 -0 -0 -0 -0
-1 -0 -1 -0 -0 -0 -0 -0 -0 -0 -0 -0 -0 -0 -0 -0 -0 -0 -0 -0 -0 -0 -0 -0 -0 -0 -0 -0 -0 -0 -0 -0 -0 -0 -51 -18 -0 -0 -0 -0 -0 -0 -0 -0 -0 -0 -0
-2 -3 -0 -0 -1 -0 -2 -0 -0 -0 -0 -0 -0 -0 -0 -0 -0 -0 -0 -0 -0 -0 -0 -0 -0 -0 -0 -0 -0 -0 -0 -0 -0 -0 -0 -14 -0 -0 -0 -0 -0 -0 -0 -0 -0 -0 -2
-0 -1 -1 -0 -1 -0 -2 -2 -0 -0 -0 -0 -0 -0 -0 -0 -0 -0 -0 -0 -0 -0 -0 -0 -0 -0 -0 -0 -0 -0 -0 -0 -0 -0 -0 -0 -13 -0 -0 -0 -12 -0 -0 -0 -60 -33 -22
-0 -3 -4 -0 -0 -0 -0 -0 -0 -1 -0 -0 -0 -0 -0 -0 -0 -0 -0 -0 -0 -0 -0 -0 -0 -0 -0 -0 -0 -0 -0 -0 -0 -0 -0 -0 -0 -59 -0 -0 -2 -0 -0 -86 -61 -47 -64
-0 -1 -2 -0 -0 -0 -0 -0 -0 -4 -0 -0 -0 -1 -1 -0 -0 -0 -0 -0 -0 -0 -0 -0 -0 -0 -0 -0 -0 -8 -0 -0 -0 -0 -0 -0 -90 -43 -37 -12 -0 -0 -10 -34 -32 -20 -54
-0 -0 -0 -0 -0 -0 -0 -0 -0 -1 -0 -0 -0 -7 -3 -0 -0 -0 -0 -0 -0 -0 -0 -0 -0 -0 -129 -92 -88 -22 -1 -0 -0 -0 -0 -0 -75 -18 -6 -22 -0 -56 -74 -108 -45 -38 -164
-3 -3 -0 -0 -0 -1 -0 -0 -0 -1 -1 -0 -0 -3 -1 -1 -0 -0 -0 -0 -0 -0 -0 -0 -0 -0 -80 -69 -62 -38 -28 -7 -0 -0 -0 -0 -73 -17 -7 -20 -24 -39 -127 -103 -19 -94 -166
-0 -1 -3 -2 -1 -3 -1 -0 -0 -0 -5 -1 -0 -10 -0 -0 -0 -0 -0 -0 -0 -0 -0 -0 -0 -0 -20 -56 -33 -13 -34 -5 -6 -0 -0 -34 -31 -79 -113 -38 -21 -109 -94 -57 -137 -251 -236
-3 -4 -3 -2 -4 -5 -0 -2 -0 -0 -2 -4 -0 -30 -2 -2 -0 -0 -0 -0 -0 -0 -0 -0 -0 -0 -0 -0 -5 -0 -0 -14 -8 -0 -29 -23 -67 -81 -113 -92 -0 -166 -54 -174 -153 -145 -203
Wind_Speed
25 25 26 27 27 27 27 28 28 29 29 29 30 30 31 32 32 32 32 32 32 31 30 29 27 24 20 21 23 21 12 10 5 2 19 24 26 26 28 28 30 32 33 35 35 33 27
26 26 27 27 27 27 28 28 29 29 30 30 31 31 31 32 33 33 33 33 33 31 30 28 25 19 19 28 23 4 7 7 5 6 13 27 26 26 27 29 30 33 35 35 35 34 30
26 27 27 28 28 28 29 29 29 30 30 30 31 32 32 33 33 33 34 34 33 31 29 26 21 16 22 18 14 6 7 7 11 6 11 25 28 28 28 29 30 30 33 32 30 31 33
26 27 27 27 28 28 29 30 31 31 32 32 32 32 32 33 34 34 34 34 33 31 27 22 16 18 26 25 30 32 9 6 3 10 22 27 29 30 28 28 29 29 28 28 30 30 29
26 26 27 27 27 28 29 30 31 32 32 33 33 34 34 34 34 34 35 33 32 27 20 16 16 18 28 25 12 24 31 9 4 16 25 28 26 29 27 28 28 26 26 25 24 28 20
25 25 26 27 28 29 30 30 31 31 32 33 34 35 35 35 34 34 34 32 24 21 18 15 22 23 24 17 5 13 3 12 4 1 15 25 22 27 29 30 31 29 27 26 25 27 11
25 25 26 27 28 29 30 31 31 32 32 33 34 35 35 36 35 33 29 22 21 20 19 21 18 19 28 12 17 3 2 10 13 13 14 22 19 31 31 31 31 32 31 33 31 22 1
25 26 27 28 29 30 31 31 32 32 33 34 34 35 35 36 35 31 22 22 23 27 33 30 39 41 38 33 25 4 5 5 6 12 13 32 27 28 30 30 31 31 32 32 29 24 8
26 28 29 29 30 31 32 32 33 33 33 34 35 35 36 36 33 22 25 26 26 30 29 33 11 21 20 27 27 10 8 6 8 9 9 12 26 19 32 34 34 33 28 29 29 29 27
27 28 29 29 31 32 33 33 34 34 35 35 35 35 35 37 22 26 21 26 29 28 28 28 18 22 15 18 36 15 6 12 12 10 8 27 21 37 32 33 34 29 25 31 33 33 33
28 29 29 29 31 32 33 34 35 35 36 36 36 36 35 31 29 25 26 31 30 21 29 18 10 11 6 11 16 11 20 12 12 16 15 12 28 31 37 27 21 29 26 27 30 32 37
28 29 30 31 31 33 33 34 35 35 36 36 36 35 35 27 25 25 31 30 23 20 27 19 13 12 8 9 14 16 13 19 20 25 31 31 19 19 35 31 12 27 26 31 27 27 23
26 28 30 31 32 32 33 34 35 35 36 36 36 36 35 28 18 24 28 22 21 24 21 21 15 14 18 16 14 18 18 22 18 22 33 37 40 38 33 28 25 15 21 23 23 23 29
26 28 29 30 32 33 34 35 36 36 37 38 39 39 32 15 16 26 23 19 24 23 20 25 28 20 17 19 17 17 24 21 23 22 25 29 34 33 22 22 16 17 16 18 21 18 21
25 27 28 30 31 33 33 35 36 36 38 38 40 31 28 21 10 13 17 20 19 19 23 25 31 27 25 20 19 18 24 29 23 18 28 28 30 33 19 20 13 22 25 12 23 32 30
27 28 29 30 31 32 33 34 35 35 37 37 35 29 26 16 5 10 17 24 20 24 31 29 30 27 30 30 26 22 24 25 31 20 18 35 41 37 32 24 17 16 19 17 20 27 28
27 28 28 30 31 31 33 34 34 35 36 37 25 26 24 6 7 15 23 23 28 37 35 26 28 37 38 36 33 32 30 31 23 21 20 25 31 46 36 30 20 18 21 23 21 17 22
28 27 28 28 31 31 31 32 32 32 35 26 24 24 10 9 16 22 30 29 27 37 39 38 39 38 38 41 41 38 39 34 36 19 27 23 25 35 41 40 26 18 18 23 27 26 22
30 29 26 27 29 30 29 29 28 29 27 26 23 24 21 16 24 27 32 36 36 37 37 39 38 38 40 42 41 34 38 38 38 33 27 23 30 33 39 37 29 25 17 17 19 23 25
30 27 24 26 27 29 27 27 25 26 25 23 23 23 19 17 22 29 34 38 39 35 38 39 42 41 43 43 37 46 47 38 39 40 36 22 28 31 34 32 25 23 18 20 26 25 22
27 24 24 24 27 28 25 25 24 24 24 21 19 22 23 22 21 28 32 32 36 38 38 39 36 38 42 46 43 42 45 47 44 39 34 20 32 29 30 28 32 30 30 24 26 24 23
23 24 26 26 24 23 22 23 22 22 23 19 22 23 25 31 30 32 32 33 37 36 36 38 38 38 37 44 43 44 40 44 43 33 30 28 35 31 35 31 28 37 36 32 23 27 24
24 25 24 22 23 23 23 23 22 21 19 20 22 25 24 24 26 30 31 34 39 40 39 35 38 41 45 41 41 50 44 46 44 42 38 35 31 33 40 32 31 39 32 31 24 23 26
25 24 22 23 23 23 22 23 22 21 18 23 25 25 23 28 28 30 33 35 38 38 38 41 39 41 40 46 49 44 44 47 48 42 40 43 40 32 40 31 42 36 25 29 33 20 20
23 23 22 22 23 24 23 23 22 21 20 21 23 21 24 29 30 33 34 37 37 41 41 41 40 35 38 38 39 41 43 45 50 47 46 42 39 37 34 34 35 38 34 30 26 24 13
22 21 21 21 22 23 22 22 22 21 19 18 20 18 23 29 26 25 35 33 36 37 39 37 36 36 31 33 35 40 44 43 42 40 38 39 37 38 29 33 36 28 23 25 20 21 15
21 21 20 21 20 22 22 21 21 20 17 18 20 21 22 31 32 31 29 33 33 33 36 34 32 31 27 31 37 42 45 39 48 42 39 38 36 39 38 34 34 22 24 22 24 17 12
18 19 18 19 19 20 20 20 20 20 19 19 22 23 22 31 33 37 36 37 35 32 33 28 29 21 25 30 28 34 39 41 42 42 35 37 37 37 34 36 37 23 23 25 17 7 4
16 16 17 17 17 19 20 20 21 21 20 19 23 25 25 27 33 38 41 42 37 34 27 22 23 26 23 27 25 28 38 30 33 47 38 36 35 36 35 39 39 32 26 19 8 4 4
Wind_Direction
333 331 329 326 325 323 322 322 321 319 317 315 313 312 311 308 305 302 300 297 295 293 291 288 290 294 305 295 205 258 339 353 58 57 166 178 219 224 231 238 237 237 241 253 259 265 274
332 332 329 328 327 324 322 319 318 317 316 315 313 311 308 305 304 302 299 296 294 290 289 289 294 305 302 258 226 355 21 6 76 113 146 195 226 224 232 233 241 247 254 253 259 256 267
328 326 326 325 327 326 325 323 319 317 315 313 311 309 307 305 302 300 299 295 291 288 287 295 302 312 291 201 305 346 32 351 134 112 135 184 212 235 251 257 246 256 259 258 256 256 251
329 328 328 327 326 326 324 323 322 321 319 316 313 309 305 303 302 299 296 293 288 285 293 303 318 306 285 272 238 233 209 349 30 137 177 208 242 241 259 262 255 254 255 249 253 246 225
328 328 329 329 328 326 323 322 320 319 318 316 314 310 307 304 300 300 297 289 285 292 311 321 313 303 281 271 287 234 220 295 328 170 192 218 260 243 253 241 246 244 237 225 230 227 213
332 333 331 328 328 327 325 323 321 319 317 315 313 311 308 304 301 301 297 291 308 313 316 317 289 292 283 300 321 168 301 279 290 145 255 265 277 250 238 227 227 225 242 230 236 250 166
330 328 328 329 327 324 323 322 321 319 317 315 313 310 306 305 302 301 309 327 321 317 309 292 298 289 272 321 290 315 262 283 276 281 281 271 276 215 210 212 220 236 246 253 263 286 12
327 325 326 326 324 323 321 319 317 316 316 315 314 311 307 305 299 295 320 320 322 307 292 287 246 247 233 246 277 286 150 181 258 273 279 225 197 200 212 213 218 226 257 266 271 295 302
324 322 319 318 319 319 317 315 315 314 312 312 312 311 309 305 297 314 308 304 316 310 298 292 249 274 262 269 268 280 270 196 264 265 266 191 263 192 217 232 236 240 278 271 268 273 295
323 320 318 319 318 315 314 311 310 310 310 308 308 308 309 308 313 309 313 317 311 318 299 298 299 284 263 268 260 273 221 261 263 263 260 264 199 236 240 228 244 277 283 270 259 271 271
319 318 317 317 315 315 313 310 308 307 305 304 303 303 304 304 301 304 302 304 305 318 290 312 307 337 284 239 306 241 260 250 247 267 274 259 265 264 246 274 275 277 279 278 287 283 274
319 318 316 315 313 311 309 309 305 302 302 300 297 295 301 306 308 298 292 300 306 299 287 305 307 301 292 249 248 300 252 261 264 268 265 266 279 274 224 259 287 277 286 277 289 291 295
319 318 317 314 311 310 307 305 304 301 297 294 292 286 282 299 314 305 300 306 296 283 304 303 296 298 285 273 261 261 267 259 250 262 263 261 258 258 268 277 281 285 283 287 292 286 290
316 317 318 316 311 308 306 303 302 302 299 297 295 286 291 309 304 288 307 302 285 292 284 297 301 289 284 280 263 266 267 256 257 259 275 267 267 265 275 278 273 278 279 278 289 290 295
313 316 316 316 315 311 309 307 305 305 304 303 301 307 300 300 305 302 303 287 293 293 289 300 296 290 281 283 276 263 266 264 261 248 261 273 268 267 271 280 268 277 273 269 284 278 293
309 310 311 311 311 311 311 310 308 309 306 306 309 311 306 302 265 293 288 285 290 286 286 295 287 287 285 280 277 271 265 276 263 258 249 265 266 262 272 270 263 266 276 263 282 279 285
306 307 309 309 311 311 311 310 309 310 309 302 316 310 316 337 289 278 278 285 289 276 279 291 285 278 276 277 280 281 277 267 271 260 265 261 268 254 268 276 253 261 269 268 280 279 286
304 305 306 307 309 310 311 311 311 311 312 313 311 302 323 329 292 287 281 284 289 281 278 278 280 280 278 274 273 278 273 275 268 264 260 263 265 265 262 261 287 248 261 263 268 274 290
302 303 304 307 308 309 310 313 314 313 317 312 303 298 299 297 291 286 285 284 284 283 279 277 277 277 276 276 274 274 274 273 277 279 256 259 260 262 263 266 274 274 256 264 269 272 277
301 300 303 305 307 308 309 311 313 314 315 313 302 299 300 283 289 288 287 285 284 285 282 279 276 276 274 274 275 267 266 271 276 275 281 239 259 255 257 261 271 281 260 267 270 274 272
302 300 303 305 304 304 306 308 311 310 312 312 302 296 299 297 291 292 288 286 287 286 285 279 282 276 271 271 273 271 267 265 268 272 283 251 256 258 262 259 261 270 279 270 270 271 271
303 302 303 304 307 307 307 310 309 309 310 304 296 301 299 292 292 291 290 287 285 287 286 282 282 282 282 268 269 271 272 263 261 274 280 278 259 259 262 262 256 264 272 276 269 274 281
300 303 302 303 305 304 305 306 306 306 309 299 308 302 300 296 295 292 289 289 286 283 284 285 285 283 272 272 284 272 268 264 262 266 272 272 270 257 259 259 262 261 261 267 276 277 277
297 300 302 302 302 301 301 304 303 302 302 296 297 301 297 290 293 292 292 290 288 284 288 284 286 280 278 285 286 275 263 262 260 262 261 262 263 268 259 259 254 263 267 269 276 273 282
296 297 298 300 301 300 298 299 300 300 300 295 296 299 292 290 292 291 290 289 291 285 286 287 288 283 288 281 277 269 259 260 256 256 255 258 259 262 260 255 264 261 265 267 275 278 226
296 296 297 300 300 301 299 298 298 299 300 297 295 298 293 289 288 290 298 296 291 290 291 290 293 290 281 274 269 262 257 253 254 252 251 255 257 251 262 257 252 263 262 266 275 273 271
297 297 298 299 301 302 300 297 297 300 299 297 294 294 292 283 285 286 291 292 294 294 292 297 299 288 277 265 263 259 257 254 248 248 243 247 250 247 251 258 261 267 264 268 255 259 277
300 301 303 303 303 303 303 301 297 298 296 293 292 288 286 284 285 282 282 284 288 291 291 297 301 296 278 257 265 260 258 252 250 245 246 243 245 247 250 254 257 267 264 260 263 231 244
306 308 307 307 305 305 301 301 299 293 294 293 289 284 290 281 280 278 273 266 280 284 293 289 281 272 261 257 262 264 248 257 252 244 245 247 249 248 251 254 261 272 272 253 241 206 178